Weather History for Mineral Wells, TX

Change the Weather History Date:

Tuesday, December 3, 2013

  Actual Average Record
Temperature  
Mean Temperature 60 °F -  
Max Temperature 80 °F 59 °F 90 °F (2005)
Min Temperature 39 °F 38 °F 24 °F (2006)
Degree Days  
Heating Degree Days 6    
Growing Degree Days 10 (Base 50)    
Moisture  
Dew Point 34 °F    
Average Humidity 53    
Maximum Humidity 93    
Minimum Humidity 14    
Precipitation  
Precipitation 0.00 in - - ()
Sea Level Pressure  
Sea Level Pressure 29.56 in    
Wind  
Wind Speed 4 mph (SSW)    
Max Wind Speed 13 mph    
Max Gust Speed -    
Visibility 10 miles    
Events      
Averages and records for this station are not official NWS values.
T = Trace of Precipitation, MM = Missing Value Source: NWS Daily Summary

Daily Weather History Graph

Daily Weather History Graph

Search for Another Location

Airport:

Trip Planner

Search our weather history database for the weather conditions in past years. The results will help you decide how hot, cold, wet, or windy it might be!

Date:

Astronomy

Dec. 03, 2013 Rise Set
Actual Time 7:18 AM CST 5:25 PM CST
Civil Twilight 6:51 AM CST 5:52 PM CST
Nautical Twilight 6:21 AM CST 6:23 PM CST
Astronomical Twilight 5:51 AM CST 6:53 PM CST
Moon 7:50 AM CST (12/3) 6:29 PM CST (12/3)
Length of Visible Light 11h 01m
Length of Day
10h 07m
New Moon, 1% of the Moon is Illuminated
Dec 3
New Moon
Dec 9
First Quarter
Dec 17
Full
Dec 25
Last Quarter
Jan 1
New

Hourly Weather History & Observations

Time (CST) Temp. Windchill Dew Point Humidity Pressure Visibility Wind Dir Wind Speed Gust Speed Precip Events Conditions
12:53 AM 41.0 °F - 36.0 °F 82% 29.63 in 10.0 mi Calm Calm - N/A   Clear
1:53 AM 41.0 °F - 36.0 °F 82% 29.61 in 10.0 mi Calm Calm - N/A   Clear
2:53 AM 39.0 °F - 35.1 °F 86% 29.58 in 10.0 mi Calm Calm - N/A   Clear
3:53 AM 39.0 °F - 36.0 °F 89% 29.57 in 10.0 mi Calm Calm - N/A   Clear
4:53 AM 39.0 °F 36.8 °F 36.0 °F 89% 29.56 in 10.0 mi SSW 3.5 mph - N/A   Clear
5:53 AM 41.0 °F 38.0 °F 37.0 °F 86% 29.55 in 10.0 mi SSE 4.6 mph - N/A   Clear
6:53 AM 39.9 °F 36.7 °F 37.0 °F 89% 29.56 in 10.0 mi SSE 4.6 mph - N/A   Clear
7:53 AM 39.0 °F - 37.0 °F 93% 29.57 in 10.0 mi Calm Calm - N/A   Clear
8:53 AM 46.9 °F - 39.9 °F 77% 29.58 in 10.0 mi Calm Calm - N/A   Clear
9:53 AM 55.9 °F - 41.0 °F 57% 29.59 in 10.0 mi Calm Calm - N/A   Clear
10:53 AM 63.0 °F - 41.0 °F 45% 29.59 in 10.0 mi SE 3.5 mph - N/A   Clear
11:53 AM 73.9 °F - 30.0 °F 20% 29.57 in 10.0 mi West 12.7 mph - N/A   Clear
12:53 PM 75.9 °F - 28.0 °F 17% 29.53 in 10.0 mi WSW 9.2 mph - N/A   Clear
1:53 PM 80.1 °F - 27.0 °F 14% 29.50 in 10.0 mi West 12.7 mph - N/A   Clear
2:53 PM 78.1 °F - 27.0 °F 15% 29.49 in 10.0 mi WSW 12.7 mph - N/A   Clear
3:53 PM 77.0 °F - 28.9 °F 17% 29.50 in 10.0 mi WSW 5.8 mph - N/A   Clear
4:53 PM 73.0 °F - 28.9 °F 20% 29.51 in 10.0 mi South 4.6 mph - N/A   Clear
5:53 PM 68.0 °F - 30.0 °F 24% 29.52 in 10.0 mi South 8.1 mph - N/A   Clear
6:53 PM 69.1 °F - 33.1 °F 26% 29.53 in 10.0 mi SSW 11.5 mph - N/A   Clear
7:53 PM 63.0 °F - 34.0 °F 34% 29.55 in 10.0 mi SW 8.1 mph - N/A   Clear
8:53 PM 55.9 °F - 35.1 °F 45% 29.56 in 10.0 mi SSE 6.9 mph - N/A   Clear
9:53 PM 55.0 °F - 36.0 °F 49% 29.57 in 10.0 mi ESE 8.1 mph - N/A   Clear
10:53 PM 52.0 °F - 37.0 °F 57% 29.57 in 10.0 mi SE 5.8 mph - N/A   Clear
11:53 PM 53.1 °F - 37.0 °F 55% 29.56 in 10.0 mi South 6.9 mph - N/A   Clear